CW9356 Weather Reports


Display with metric or nautical units.
time (UTC)temp
F
wind
direction
speed
MPH
gust
MPH
rain 1hr
in
rain 24hr
in
rain mn
in
humidity
%
barometer
mb
20260505025115 70 131 0.0 0.0 0.00 0.00 0.00 59 1000.3
20260505023653 71 131 0.0 0.0 0.00 0.00 0.00 58 1000.2
20260505022132 71 131 0.0 1.0 0.00 0.00 0.00 57 999.6
20260505020648 70 122 0.0 0.0 0.00 0.00 0.00 59 999.5
20260505015148 71 137 0.0 0.0 0.00 0.00 0.00 59 999.6
20260505013645 72 137 0.0 0.0 0.00 0.00 0.00 56 999.3
20260505012159 74 137 0.0 0.0 0.00 0.00 0.00 54 999.2
20260505010618 75 137 0.0 0.0 0.00 0.00 0.00 51 999.0
20260505005215 77 137 0.0 0.0 0.00 0.00 0.00 48 998.9
20260505003650 79 137 0.0 0.0 0.00 0.00 0.00 46 998.6
20260505002128 80 137 0.0 0.0 0.00 0.00 0.00 42 998.7
20260505000625 82 137 0.0 0.0 0.00 0.00 0.00 40 998.6
20260504235200 83 120 0.0 2.0 0.00 0.00 0.00 33 998.6
20260504233618 84 118 0.0 3.0 0.00 0.00 0.00 32 998.5
20260504232113 85 133 0.0 8.0 0.00 0.00 0.00 30 998.8
20260504230635 85 119 1.0 4.0 0.00 0.00 0.00 32 998.8
20260504225129 86 9 0.0 0.0 0.00 0.00 0.00 37 998.7
20260504223629 86 92 0.0 0.0 0.00 0.00 0.00 34 998.7
20260504222205 87 109 0.0 0.0 0.00 0.00 0.00 34 998.6
20260504220618 87 355 0.0 1.0 0.00 0.00 0.00 32 998.7
20260504215138 87 116 0.0 1.0 0.00 0.00 0.00 32 998.9
20260504213614 86 128 0.0 0.0 0.00 0.00 0.00 32 999.0
20260504212114 86 261 0.0 0.0 0.00 0.00 0.00 31 999.4
20260504210712 84 345 0.0 0.0 0.00 0.00 0.00 35 999.5
20260504205146 85 129 0.0 0.0 0.00 0.00 0.00 36 999.9
20260504203646 85 92 0.0 0.0 0.00 0.00 0.00 33 1000.1
20260504202201 84 136 0.0 0.0 0.00 0.00 0.00 29 1000.3
20260504200636 84 63 0.0 0.0 0.00 0.00 0.00 34 1000.6
20260504195155 84 117 0.0 1.0 0.00 0.00 0.00 31 1000.7
20260504193631 84 113 0.0 0.0 0.00 0.00 0.00 33 1000.7
20260504192147 83 123 0.0 0.0 0.00 0.00 0.00 34 1000.9
20260504190707 83 138 0.0 0.0 0.00 0.00 0.00 32 1001.0
20260504185201 82 121 0.0 3.0 0.00 0.00 0.00 34 1001.1
20260504183636 81 164 0.0 1.0 0.00 0.00 0.00 36 1001.3
20260504182134 82 121 0.0 0.0 0.00 0.00 0.00 37 1001.5
20260504180631 82 126 0.0 0.0 0.00 0.00 0.00 37 1001.5
20260504175131 82 115 0.0 0.0 0.00 0.00 0.00 33 1001.5
20260504173627 82 360 0.0 0.0 0.00 0.00 0.00 36 1001.6
20260504172144 81 360 0.0 0.0 0.00 0.00 0.00 33 1001.6
20260504170725 79 15 0.0 0.0 0.00 0.00 0.00 36 1001.7
20260504150737 72 128 0.0 0.0 0.00 0.00 0.00 48 1001.7
20260504150655 72 128 0.0 0.0 0.00 0.00 0.00 48 1001.7
20260504140621 65 62 0.0 0.0 0.00 0.00 0.00 59 1001.8
20260504130654 60 168 0.0 1.0 0.00 0.00 0.00 65 1001.4
20260504110708 63 150 0.0 0.0 0.00 0.00 0.00 55 1001.3
20260504100614 64 162 0.0 2.0 0.00 0.00 0.00 52 1000.9
20260504080624 66 124 0.0 3.0 0.00 0.00 0.00 48 1001.9
20260504050650 70 156 1.0 3.0 0.00 0.00 0.00 38 1003.5
20260504045125 71 148 0.0 5.0 0.00 0.00 0.00 36 1003.6
20260504043723 71 151 0.0 2.0 0.00 0.00 0.00 36 1003.7
20260504042119 71 163 0.0 2.0 0.00 0.00 0.00 36 1004.0
20260504040636 70 171 1.0 4.0 0.00 0.00 0.00 37 1004.1
20260504035114 70 155 1.0 5.0 0.00 0.00 0.00 37 1004.1
20260504033732 70 152 0.0 0.0 0.00 0.00 0.00 37 1004.5
20260504032125 71 158 0.0 1.0 0.00 0.00 0.00 35 1004.3
20260504030647 72 155 0.0 1.0 0.00 0.00 0.00 33 1004.3